| time (UTC) | temp F | wind direction | speed MPH | gust MPH | rain 1hr in | rain 24hr in | rain mn in | humidity % | barometer mb |
| 20260505030542 | 36 | 242 | 6.0 | 14.0 | 0.00 | 0.14 | 0.00 | 80 | 998.1 |
| 20260505030053 | 36 | 239 | 6.0 | 14.0 | 0.00 | 0.14 | 0.00 | 81 | 998.2 |
| 20260505025542 | 36 | 249 | 8.0 | 14.0 | 0.00 | 0.16 | 0.00 | 81 | 998.1 |
| 20260505025042 | 35 | 225 | 3.0 | 10.0 | 0.00 | 0.16 | 0.00 | 82 | 998.1 |
| 20260505024549 | 35 | 256 | 3.0 | 6.0 | 0.00 | 0.16 | 0.00 | 82 | 998.1 |
| 20260505024041 | 35 | 232 | 2.0 | 6.0 | 0.00 | 0.16 | 0.00 | 81 | 998.2 |
| 20260505023544 | 35 | 156 | 3.0 | 7.0 | 0.00 | 0.16 | 0.00 | 80 | 998.1 |
| 20260505023054 | 36 | 217 | 2.0 | 7.0 | 0.00 | 0.16 | 0.00 | 80 | 998.1 |
| 20260505022541 | 35 | 248 | 1.0 | 8.0 | 0.00 | 0.16 | 0.00 | 80 | 998.2 |
| 20260505022042 | 36 | 212 | 2.0 | 13.0 | 0.00 | 0.16 | 0.00 | 80 | 998.1 |
| 20260505021549 | 36 | 234 | 3.0 | 17.0 | 0.00 | 0.16 | 0.00 | 80 | 998.1 |
| 20260505021041 | 36 | 332 | 8.0 | 17.0 | 0.00 | 0.16 | 0.00 | 80 | 998.3 |
| 20260505020542 | 36 | 276 | 6.0 | 13.0 | 0.00 | 0.16 | 0.00 | 82 | 998.2 |
| 20260505020049 | 36 | 259 | 8.0 | 13.0 | 0.00 | 0.16 | 0.00 | 83 | 998.1 |
| 20260505015542 | 36 | 240 | 7.0 | 13.0 | 0.00 | 0.18 | 0.00 | 83 | 998.2 |
| 20260505015042 | 36 | 288 | 4.0 | 10.0 | 0.00 | 0.18 | 0.00 | 84 | 998.2 |
| 20260505014605 | 36 | 227 | 5.0 | 10.0 | 0.00 | 0.18 | 0.00 | 84 | 998.2 |
| 20260505014042 | 36 | 244 | 6.0 | 11.0 | 0.00 | 0.18 | 0.00 | 84 | 998.2 |
| 20260505013542 | 36 | 263 | 5.0 | 11.0 | 0.00 | 0.18 | 0.00 | 84 | 998.2 |
| 20260505013050 | 36 | 240 | 6.0 | 13.0 | 0.00 | 0.18 | 0.00 | 84 | 998.3 |
| 20260505012542 | 35 | 246 | 5.0 | 13.0 | 0.00 | 0.18 | 0.00 | 84 | 998.1 |
| 20260505012042 | 35 | 259 | 5.0 | 10.0 | 0.00 | 0.18 | 0.00 | 84 | 998.3 |
| 20260505011548 | 35 | 225 | 4.0 | 10.0 | 0.00 | 0.18 | 0.00 | 85 | 998.2 |
| 20260505011043 | 35 | 254 | 3.0 | 10.0 | 0.00 | 0.18 | 0.00 | 85 | 998.2 |
| 20260505010541 | 35 | 277 | 3.0 | 8.0 | 0.00 | 0.18 | 0.00 | 84 | 998.3 |
| 20260505010049 | 35 | 252 | 3.0 | 8.0 | 0.00 | 0.18 | 0.00 | 84 | 998.3 |
| 20260505005541 | 35 | 246 | 3.0 | 11.0 | 0.00 | 0.20 | 0.00 | 84 | 998.2 |
| 20260505005042 | 36 | 240 | 4.0 | 12.0 | 0.00 | 0.20 | 0.00 | 84 | 998.3 |
| 20260505004549 | 36 | 235 | 7.0 | 12.0 | 0.00 | 0.20 | 0.00 | 84 | 998.3 |
| 20260505004041 | 36 | 239 | 6.0 | 12.0 | 0.00 | 0.20 | 0.00 | 84 | 998.4 |
| 20260505003541 | 36 | 248 | 5.0 | 12.0 | 0.00 | 0.20 | 0.00 | 84 | 998.4 |
| 20260505003045 | 36 | 227 | 7.0 | 16.0 | 0.00 | 0.20 | 0.00 | 84 | 998.4 |
| 20260505002544 | 36 | 229 | 6.0 | 16.0 | 0.00 | 0.20 | 0.00 | 84 | 998.4 |
| 20260505002041 | 36 | 266 | 9.0 | 16.0 | 0.00 | 0.20 | 0.00 | 84 | 998.4 |
| 20260505001602 | 36 | 249 | 9.0 | 15.0 | 0.00 | 0.20 | 0.00 | 84 | 998.4 |
| 20260505001042 | 36 | 246 | 9.0 | 15.0 | 0.00 | 0.20 | 0.00 | 84 | 998.4 |
| 20260505000542 | 36 | 223 | 4.0 | 10.0 | 0.00 | 0.20 | 0.00 | 82 | 998.3 |
| 20260505000115 | 36 | 250 | 2.0 | 9.0 | 0.00 | 0.20 | 0.00 | 82 | 998.3 |
| 20260504235542 | 36 | 284 | 3.0 | 9.0 | 0.00 | 0.22 | 0.00 | 82 | 998.3 |
| 20260504235042 | 36 | 285 | 2.0 | 9.0 | 0.00 | 0.22 | 0.00 | 82 | 998.3 |
| 20260504234606 | 36 | 266 | 3.0 | 9.0 | 0.00 | 0.22 | 0.00 | 82 | 998.3 |
| 20260504234041 | 36 | 262 | 4.0 | 13.0 | 0.00 | 0.22 | 0.00 | 83 | 998.3 |
| 20260504233541 | 36 | 197 | 6.0 | 13.0 | 0.00 | 0.22 | 0.00 | 83 | 998.3 |
| 20260504233059 | 36 | 252 | 4.0 | 12.0 | 0.00 | 0.22 | 0.00 | 83 | 998.3 |
| 20260504232542 | 35 | 234 | 7.0 | 12.0 | 0.00 | 0.22 | 0.00 | 83 | 998.3 |
| 20260504232041 | 35 | 258 | 7.0 | 11.0 | 0.00 | 0.22 | 0.00 | 84 | 998.4 |
| 20260504231546 | 35 | 258 | 4.0 | 9.0 | 0.00 | 0.22 | 0.00 | 84 | 998.4 |
| 20260504231041 | 35 | 261 | 4.0 | 9.0 | 0.00 | 0.22 | 0.00 | 84 | 998.4 |
| 20260504230541 | 35 | 238 | 3.0 | 8.0 | 0.00 | 0.22 | 0.00 | 84 | 998.5 |
| 20260504230047 | 35 | 263 | 3.0 | 9.0 | 0.00 | 0.22 | 0.00 | 84 | 998.5 |
| 20260504225542 | 35 | 232 | 3.0 | 9.0 | 0.00 | 0.22 | 0.00 | 84 | 998.6 |
| 20260504225045 | 35 | 236 | 4.0 | 10.0 | 0.00 | 0.22 | 0.00 | 84 | 998.6 |
| 20260504224603 | 35 | 259 | 4.0 | 10.0 | 0.00 | 0.22 | 0.00 | 84 | 998.6 |
| 20260504224042 | 35 | 232 | 3.0 | 7.0 | 0.00 | 0.22 | 0.00 | 84 | 998.5 |
| 20260504223546 | 35 | 240 | 2.0 | 9.0 | 0.00 | 0.22 | 0.00 | 83 | 998.6 |
| 20260504223048 | 35 | 258 | 3.0 | 9.0 | 0.00 | 0.22 | 0.00 | 83 | 998.6 |
| 20260504222542 | 34 | 259 | 4.0 | 8.0 | 0.00 | 0.22 | 0.00 | 83 | 998.6 |
| 20260504222043 | 35 | 250 | 3.0 | 7.0 | 0.00 | 0.22 | 0.00 | 82 | 998.7 |
| 20260504221555 | 35 | 252 | 3.0 | 8.0 | 0.00 | 0.22 | 0.00 | 82 | 998.6 |
| 20260504221043 | 35 | 229 | 3.0 | 10.0 | 0.00 | 0.22 | 0.00 | 82 | 998.5 |
| 20260504220545 | 35 | 255 | 6.0 | 11.0 | 0.00 | 0.22 | 0.00 | 81 | 998.6 |
| 20260504220050 | 35 | 248 | 6.0 | 11.0 | 0.00 | 0.22 | 0.00 | 81 | 998.6 |
| 20260504215543 | 35 | 243 | 8.0 | 13.0 | 0.00 | 0.22 | 0.22 | 81 | 998.6 |
| 20260504215043 | 36 | 235 | 6.0 | 13.0 | 0.00 | 0.22 | 0.22 | 82 | 998.6 |
| 20260504214548 | 36 | 241 | 7.0 | 12.0 | 0.00 | 0.22 | 0.22 | 83 | 998.5 |
| 20260504214043 | 36 | 259 | 3.0 | 9.0 | 0.00 | 0.22 | 0.22 | 83 | 998.5 |
| 20260504213543 | 36 | 166 | 3.0 | 9.0 | 0.00 | 0.22 | 0.22 | 83 | 998.5 |
| 20260504213112 | 36 | 250 | 5.0 | 11.0 | 0.00 | 0.22 | 0.22 | 82 | 998.6 |
| 20260504212543 | 36 | 240 | 6.0 | 11.0 | 0.00 | 0.22 | 0.22 | 81 | 998.5 |
| 20260504212047 | 36 | 238 | 6.0 | 11.0 | 0.00 | 0.22 | 0.22 | 80 | 998.5 |
| 20260504211549 | 36 | 255 | 5.0 | 10.0 | 0.00 | 0.22 | 0.22 | 80 | 998.5 |
| 20260504211044 | 36 | 202 | 5.0 | 10.0 | 0.00 | 0.22 | 0.22 | 80 | 998.4 |
| 20260504210543 | 36 | 250 | 3.0 | 10.0 | 0.00 | 0.22 | 0.22 | 80 | 998.4 |
| 20260504210053 | 36 | 234 | 5.0 | 10.0 | 0.00 | 0.22 | 0.22 | 80 | 998.4 |
| 20260504205544 | 36 | 248 | 5.0 | 10.0 | 0.00 | 0.22 | 0.22 | 81 | 998.5 |
| 20260504205045 | 36 | 234 | 5.0 | 14.0 | 0.00 | 0.22 | 0.22 | 81 | 998.4 |
| 20260504204557 | 36 | 238 | 5.0 | 14.0 | 0.00 | 0.22 | 0.22 | 81 | 998.5 |
| 20260504204043 | 37 | 241 | 7.0 | 14.0 | 0.00 | 0.22 | 0.22 | 80 | 998.5 |
| 20260504203546 | 37 | 265 | 8.0 | 13.0 | 0.00 | 0.22 | 0.22 | 80 | 998.5 |
| 20260504203112 | 37 | 265 | 7.0 | 13.0 | 0.00 | 0.22 | 0.22 | 79 | 998.6 |
| 20260504202543 | 37 | 298 | 1.0 | 7.0 | 0.00 | 0.22 | 0.22 | 77 | 998.5 |
| 20260504202043 | 37 | 246 | 2.0 | 11.0 | 0.00 | 0.22 | 0.22 | 77 | 998.5 |
| 20260504201554 | 37 | 268 | 2.0 | 11.0 | 0.00 | 0.22 | 0.22 | 77 | 998.5 |
| 20260504201043 | 37 | 290 | 3.0 | 11.0 | 0.00 | 0.22 | 0.22 | 77 | 998.5 |
| 20260504200543 | 37 | 238 | 4.0 | 8.0 | 0.00 | 0.22 | 0.22 | 77 | 998.5 |
| 20260504200053 | 37 | 237 | 3.0 | 8.0 | 0.00 | 0.22 | 0.22 | 79 | 998.4 |
| 20260504195542 | 37 | 208 | 1.0 | 7.0 | 0.00 | 0.22 | 0.22 | 78 | 998.4 |
| 20260504195045 | 37 | 351 | 2.0 | 11.0 | 0.00 | 0.22 | 0.22 | 78 | 998.4 |
| 20260504194601 | 37 | 207 | 5.0 | 11.0 | 0.00 | 0.22 | 0.22 | 78 | 998.3 |
| 20260504194044 | 37 | 321 | 2.0 | 10.0 | 0.00 | 0.22 | 0.22 | 78 | 998.4 |
| 20260504193547 | 37 | 195 | 3.0 | 10.0 | 0.00 | 0.22 | 0.22 | 78 | 998.3 |
| 20260504193100 | 37 | 298 | 6.0 | 10.0 | 0.00 | 0.22 | 0.22 | 79 | 998.3 |
| 20260504192542 | 37 | 165 | 3.0 | 6.0 | 0.00 | 0.22 | 0.22 | 80 | 998.3 |
| 20260504192043 | 37 | 0 | 2.0 | 5.0 | 0.00 | 0.22 | 0.22 | 80 | 998.3 |
| 20260504191547 | 37 | 313 | 2.0 | 5.0 | 0.00 | 0.22 | 0.22 | 80 | 998.3 |
| 20260504191041 | 37 | 329 | 2.0 | 4.0 | 0.00 | 0.22 | 0.22 | 79 | 998.3 |
| 20260504190543 | 37 | 350 | 2.0 | 4.0 | 0.00 | 0.22 | 0.22 | 79 | 998.2 |
| 20260504190058 | 37 | 331 | 2.0 | 4.0 | 0.00 | 0.22 | 0.22 | 79 | 998.2 |
| 20260504185541 | 37 | 265 | 1.0 | 5.0 | 0.00 | 0.22 | 0.22 | 78 | 998.3 |
| 20260504185041 | 37 | 250 | 1.0 | 6.0 | 0.00 | 0.22 | 0.22 | 78 | 998.2 |
| 20260504184543 | 37 | 255 | 2.0 | 6.0 | 0.00 | 0.22 | 0.22 | 78 | 998.3 |
| 20260504184041 | 37 | 260 | 2.0 | 4.0 | 0.00 | 0.22 | 0.22 | 78 | 998.3 |
| 20260504183547 | 38 | 248 | 1.0 | 5.0 | 0.00 | 0.22 | 0.22 | 78 | 998.3 |
| 20260504183049 | 38 | 281 | 1.0 | 5.0 | 0.00 | 0.22 | 0.22 | 78 | 998.1 |
| 20260504182544 | 38 | 331 | 2.0 | 8.0 | 0.00 | 0.22 | 0.22 | 78 | 998.2 |
| 20260504182041 | 38 | 0 | 2.0 | 11.0 | 0.00 | 0.22 | 0.22 | 77 | 998.1 |
| 20260504181546 | 38 | 261 | 4.0 | 15.0 | 0.00 | 0.22 | 0.22 | 77 | 998.2 |
| 20260504181041 | 38 | 251 | 7.0 | 15.0 | 0.00 | 0.22 | 0.22 | 76 | 998.3 |
| 20260504180544 | 39 | 241 | 5.0 | 10.0 | 0.00 | 0.22 | 0.22 | 76 | 998.1 |
| 20260504180049 | 39 | 5 | 3.0 | 10.0 | 0.00 | 0.22 | 0.22 | 77 | 998.0 |
| 20260504175541 | 40 | 249 | 5.0 | 14.0 | 0.00 | 0.22 | 0.22 | 77 | 997.9 |
| 20260504175043 | 40 | 267 | 3.0 | 16.0 | 0.00 | 0.22 | 0.22 | 78 | 998.0 |
| 20260504174551 | 40 | 298 | 7.0 | 16.0 | 0.00 | 0.22 | 0.22 | 78 | 997.9 |
| 20260504174041 | 40 | 308 | 7.0 | 15.0 | 0.00 | 0.22 | 0.22 | 77 | 997.8 |
| 20260504173542 | 40 | 245 | 7.0 | 15.0 | 0.00 | 0.22 | 0.22 | 76 | 997.7 |
| 20260504173054 | 40 | 260 | 3.0 | 12.0 | 0.00 | 0.22 | 0.22 | 75 | 997.6 |
| 20260504172540 | 40 | 229 | 6.0 | 12.0 | 0.00 | 0.22 | 0.22 | 73 | 997.7 |
| 20260504172044 | 40 | 246 | 7.0 | 13.0 | 0.00 | 0.22 | 0.22 | 72 | 997.6 |
| 20260504171542 | 41 | 248 | 5.0 | 13.0 | 0.00 | 0.22 | 0.22 | 72 | 997.6 |
| 20260504171044 | 41 | 237 | 3.0 | 11.0 | 0.00 | 0.22 | 0.22 | 71 | 997.6 |
| 20260504170542 | 41 | 279 | 5.0 | 13.0 | 0.00 | 0.22 | 0.22 | 71 | 997.5 |
| 20260504151043 | 41 | 263 | 3.0 | 8.0 | 0.00 | 0.22 | 0.22 | 80 | 997.4 |
| 20260504150543 | 41 | 272 | 5.0 | 9.0 | 0.00 | 0.22 | 0.22 | 80 | 997.5 |
| 20260504141043 | 39 | 5 | 2.0 | 8.0 | 0.01 | 0.22 | 0.22 | 85 | 997.1 |
| 20260504140543 | 39 | 352 | 3.0 | 8.0 | 0.02 | 0.22 | 0.22 | 85 | 997.1 |
| 20260504140104 | 39 | 344 | 2.0 | 7.0 | 0.03 | 0.22 | 0.22 | 85 | 997.0 |
| 20260504130545 | 37 | 309 | 1.0 | 7.0 | 0.02 | 0.21 | 0.19 | 84 | 996.7 |
| 20260504110545 | 38 | 0 | 0.0 | 0.0 | 0.00 | 0.28 | 0.17 | 86 | 996.3 |
| 20260504100543 | 37 | 0 | 0.0 | 0.0 | 0.01 | 0.33 | 0.16 | 87 | 996.4 |
| 20260504090116 | 36 | 0 | 0.0 | 0.0 | 0.02 | 0.33 | 0.14 | 87 | 996.5 |
| 20260504081554 | 36 | 0 | 0.0 | 0.0 | 0.03 | 0.34 | 0.14 | 87 | 996.5 |
| 20260504081044 | 36 | 0 | 0.0 | 0.0 | 0.02 | 0.33 | 0.13 | 87 | 996.5 |
| 20260504080546 | 36 | 0 | 0.0 | 0.0 | 0.03 | 0.33 | 0.13 | 87 | 996.4 |
| 20260504050543 | 36 | 0 | 0.0 | 2.0 | 0.00 | 0.38 | 0.09 | 88 | 996.8 |
| 20260504045545 | 35 | 98 | 0.0 | 4.0 | 0.00 | 0.38 | 0.09 | 88 | 996.9 |
| 20260504045043 | 35 | 103 | 2.0 | 4.0 | 0.00 | 0.37 | 0.08 | 88 | 997.0 |
| 20260504044600 | 35 | 94 | 0.0 | 3.0 | 0.00 | 0.37 | 0.08 | 89 | 997.0 |
| 20260504044044 | 35 | 0 | 0.0 | 2.0 | 0.00 | 0.37 | 0.08 | 89 | 997.0 |
| 20260504043544 | 35 | 91 | 0.0 | 3.0 | 0.00 | 0.37 | 0.08 | 89 | 997.1 |
| 20260504043050 | 35 | 91 | 0.0 | 4.0 | 0.00 | 0.37 | 0.08 | 89 | 997.1 |
| 20260504042543 | 35 | 91 | 1.0 | 4.0 | 0.00 | 0.37 | 0.08 | 89 | 997.2 |
| 20260504042042 | 35 | 0 | 0.0 | 2.0 | 0.00 | 0.37 | 0.08 | 89 | 997.2 |
| 20260504041550 | 35 | 0 | 0.0 | 4.0 | 0.00 | 0.37 | 0.08 | 89 | 997.2 |
| 20260504041042 | 35 | 80 | 0.0 | 6.0 | 0.00 | 0.37 | 0.08 | 89 | 997.2 |
| 20260504040542 | 35 | 0 | 0.0 | 6.0 | 0.00 | 0.37 | 0.08 | 89 | 997.3 |
| 20260504040050 | 34 | 102 | 2.0 | 7.0 | 0.00 | 0.37 | 0.08 | 89 | 997.3 |
| 20260504035542 | 34 | 101 | 3.0 | 7.0 | 0.01 | 0.37 | 0.08 | 89 | 997.4 |
| 20260504035043 | 34 | 96 | 2.0 | 7.0 | 0.01 | 0.37 | 0.08 | 89 | 997.4 |
| 20260504034552 | 34 | 101 | 2.0 | 6.0 | 0.00 | 0.37 | 0.07 | 89 | 997.5 |
| 20260504034043 | 34 | 0 | 1.0 | 6.0 | 0.00 | 0.37 | 0.07 | 89 | 997.5 |
| 20260504033543 | 34 | 0 | 0.0 | 6.0 | 0.00 | 0.37 | 0.07 | 89 | 997.6 |
| 20260504033056 | 34 | 101 | 1.0 | 6.0 | 0.01 | 0.37 | 0.07 | 89 | 997.6 |
| 20260504032543 | 34 | 109 | 1.0 | 4.0 | 0.01 | 0.37 | 0.07 | 89 | 997.7 |
| 20260504032042 | 34 | 125 | 0.0 | 3.0 | 0.01 | 0.37 | 0.07 | 89 | 997.7 |
| 20260504031550 | 34 | 0 | 1.0 | 3.0 | 0.01 | 0.37 | 0.07 | 89 | 997.7 |